Regional Weather Roundup
Issued by NWS

Home | Current Version | Previous Version | Graphics & Text | Print | Product List | Glossary On
Versions: 1 2 3 4 5 6 7 8 9 10 11 12 13 14 15 16 17 18 19 20 21 22 23 24 25 26 27 28 29 30 31 32 33 34 35 36 37 38 39 40 41 42 43 44 45 46 47 48 49 50
000
ASUS43 KIND 201709
RWRIN

WEATHER ROUNDUP FOR INDIANA
NATIONAL WEATHER SERVICE INDIANAPOLIS IN
100 PM EDT WED AUG 20 2014

NOTE: "FAIR" INDICATES FEW OR NO CLOUDS BELOW 12,000 FEET WITH NO
SIGNIFICANT WEATHER AND/OR OBSTRUCTIONS TO VISIBILITY.

* - STATION DOES NOT REPORT WEATHER SUCH AS PRECIPITATION OR FOG.

+ - STATION NOT QUALITY CONTROLLED BY THE NATIONAL WEATHER SERVICE.
    USE DATA WITH CAUTION...ESPECIALLY DEWPOINT AND RELATIVE
    HUMIDITY OBSERVATIONS.

INZ001>003-010>013-019-020-201800-
NORTHWEST INDIANA

CITY           SKY/WX    TMP DP  RH WIND       PRES   REMARKS
GARY /AIRPORT/ PTSUNNY   82  64  54 W14       29.92
KNOX *+        MOSUNNY   81  65  58 W10       29.93R
LA PORTE +     PTSUNNY   80  65  61 W6        29.94R
MICHIGAN CITY+ MOSUNNY   81  61  50 W7        29.93R
MONTICELLO +   MOSUNNY   80  68  65 SW8       29.95R
RENSSELAER +   PTSUNNY   81  70  69 W10       29.96R
VALPARAISO     MOSUNNY   81  66  60 W12       29.94R

$$

LMZ046-743>745-201800-
SOUTHERN LAKE MICHIGAN

STATION/POSITION TIME  TEMP WIND        PRES
                       AIR  DIR/SP/G
                 (UTC) (F)  (DEG/KT/KT) (MB)
BURNS HARBOR     1700   75   CALM  /  2   N/A
MICHIGAN CITY    1700   72  230/  7/  8   N/A

$$

INZ004-005-014>016-021>024-201800-
NORTH CENTRAL INDIANA

CITY           SKY/WX    TMP DP  RH WIND       PRES   REMARKS
GOSHEN         MOSUNNY   82  64  54 SW14      29.92R
LOGANSPORT +   SUNNY     81  63  54 W14       29.96R
PERU/GRISSOM   SUNNY     82  70  67 W15       29.96R
ROCHESTER +    SUNNY     84  66  54 W9        29.95R
SOUTH BEND       N/A    N/A N/A N/A MISG      29.93
WARSAW +       SUNNY     81  64  57 W8        29.93R

$$

INZ006>009-017-018-025>027-201800-
NORTHEAST INDIANA

CITY           SKY/WX    TMP DP  RH WIND       PRES   REMARKS
ANGOLA *+      PTSUNNY   81  66  61 W8        29.91R
AUBURN +       SUNNY     79  63  57 W8        29.93S
FORT WAYNE     PTSUNNY   79  65  62 W12       29.93S
HUNTINGTON +   PTSUNNY   80  67  64 W10       29.94R

$$

INZ028-029-035-036-043>045-051>053-201800-
WEST CENTRAL INDIANA

CITY           SKY/WX    TMP DP  RH WIND       PRES   REMARKS
GREENCASTLE +  PTSUNNY   79  72  78 W3        30.00R
LAFAYETTE      PTSUNNY   80  67  64 SW6       29.95R
TERRE HAUTE    LGT RAIN  79  73  82 W5        29.98R

$$

INZ030>032-037>040-046>048-054>057-064-065-201800-
CENTRAL INDIANA

CITY           SKY/WX    TMP DP  RH WIND       PRES   REMARKS
ANDERSON       MOSUNNY   82  64  54 W12       29.97R
CP ATTERBURY + SUNNY     82  68  61 W7        29.96F
COLUMBUS       MOSUNNY   82  72  69 W7        29.97S
FRANKFORT +    MOSUNNY   82  68  63 W8        29.97S
INDIANAPOLIS   PTSUNNY   82  67  60 W10       29.95F
-EAGLE CREEK   MOSUNNY   82  65  56 W8        29.95S
KOKOMO *+      MOSUNNY   82  66  57 W15       29.96R
MARION +       MOSUNNY   81  63  54 W12G17    29.96R
MT COMFORT *+  MOSUNNY   82  64  54 W9        29.97R
SHELBYVILLE    SUNNY     83  71  67 W8        29.96S
ZIONSVILLE +   MOSUNNY   82  66  58 W8        29.97F

$$

INZ033-034-041-042-049-050-058-059-201800-
EAST CENTRAL INDIANA

CITY           SKY/WX    TMP DP  RH WIND       PRES   REMARKS
MUNCIE         MOSUNNY   82  66  58 W13G20    29.95S

$$

INZ060-061-067>069-081>083-085>088-201800-
SOUTHWEST INDIANA

CITY           SKY/WX    TMP DP  RH WIND       PRES   REMARKS
EVANSVILLE     CLOUDY    83  75  77 SW9       29.97R
WASHINGTON +   CLOUDY    82  74  77 CALM      29.96R

$$

INZ062-063-066-070>080-084-089>092-201800-
SOUTH CENTRAL AND SOUTHEAST INDIANA

CITY           SKY/WX    TMP DP  RH WIND       PRES   REMARKS
BEDFORD +      MOSUNNY   86  64  48 CALM      29.95F
BLOOMINGTON    PTSUNNY   83  71  67 CALM      29.96F
SEYMOUR +      SUNNY     81  55  41 W5        29.96S

$$




USA.gov is the U.S. government's official web portal to all federal, state and local government web resources and services.